Time,TemperatureF,DewpointF,PressureIn,WindDirection,WindDirectionDegrees,WindSpeedMPH,WindSpeedGustMPH,Humidity,HourlyPrecipIn,Conditions,Clouds,dailyrainin,SoftwareType,DateUTC
2013-10-30 00:02:00,39.8,31.2,30.26,ESE,107,0.0,0.0,71,0.00,,,0.00,Wunderground v.1.15,2013-10-30 04:02:00,
2013-10-30 00:07:00,39.6,31.0,30.26,ESE,107,0.0,0.0,71,0.00,,,0.00,Wunderground v.1.15,2013-10-30 04:07:00,
2013-10-30 00:12:00,39.5,31.2,30.26,ESE,107,0.0,0.0,72,0.00,,,0.01,Wunderground v.1.15,2013-10-30 04:12:00,
2013-10-30 00:17:00,39.5,31.6,30.25,ESE,107,0.0,0.0,73,0.00,,,0.01,Wunderground v.1.15,2013-10-30 04:17:00,
2013-10-30 00:23:00,39.3,32.0,30.25,ESE,107,0.0,0.0,75,0.00,,,0.01,Wunderground v.1.15,2013-10-30 04:23:00,
2013-10-30 00:32:00,39.3,32.7,30.25,ESE,107,0.0,0.0,77,0.00,,,0.01,Wunderground v.1.15,2013-10-30 04:32:00,
2013-10-30 00:37:00,39.2,32.9,30.25,ESE,107,0.0,0.0,78,0.00,,,0.01,Wunderground v.1.15,2013-10-30 04:37:00,
2013-10-30 00:47:00,39.1,33.5,30.25,ESE,107,0.0,0.0,80,0.00,,,0.02,Wunderground v.1.15,2013-10-30 04:47:00,
2013-10-30 00:57:00,38.9,33.6,30.25,ESE,107,0.0,0.0,81,0.00,,,0.03,Wunderground v.1.15,2013-10-30 04:57:00,
2013-10-30 01:07:00,38.8,33.8,30.24,ESE,107,0.0,0.0,82,0.00,,,0.03,Wunderground v.1.15,2013-10-30 05:07:00,
2013-10-30 01:12:00,38.8,34.1,30.24,ESE,107,0.0,0.0,83,0.00,,,0.03,Wunderground v.1.15,2013-10-30 05:12:00,
2013-10-30 01:17:00,38.8,34.4,30.24,ESE,107,0.0,0.0,84,0.00,,,0.04,Wunderground v.1.15,2013-10-30 05:17:00,
2013-10-30 01:23:00,38.8,34.4,30.24,ESE,107,0.0,0.0,84,0.00,,,0.04,Wunderground v.1.15,2013-10-30 05:23:00,
2013-10-30 01:32:00,38.8,34.7,30.24,ESE,107,0.0,0.0,85,0.00,,,0.04,Wunderground v.1.15,2013-10-30 05:32:00,
2013-10-30 01:42:00,38.8,34.7,30.24,ESE,107,0.0,0.0,85,0.00,,,0.05,Wunderground v.1.15,2013-10-30 05:42:00,
2013-10-30 01:52:00,38.9,35.1,30.23,ESE,107,0.0,0.0,86,0.00,,,0.05,Wunderground v.1.15,2013-10-30 05:52:00,
2013-10-30 02:02:00,38.9,35.4,30.23,ESE,107,0.0,0.0,87,0.00,,,0.05,Wunderground v.1.15,2013-10-30 06:02:00,
2013-10-30 02:07:00,38.9,35.4,30.23,ESE,107,0.0,0.0,87,0.00,,,0.05,Wunderground v.1.15,2013-10-30 06:07:00,
2013-10-30 02:17:00,39.1,35.6,30.23,ESE,107,0.0,0.0,87,0.00,,,0.06,Wunderground v.1.15,2013-10-30 06:17:00,
2013-10-30 02:22:00,39.1,35.8,30.23,ESE,107,0.0,0.0,88,0.00,,,0.06,Wunderground v.1.15,2013-10-30 06:22:00,
2013-10-30 02:32:00,39.1,35.8,30.22,ESE,107,0.0,0.0,88,0.00,,,0.06,Wunderground v.1.15,2013-10-30 06:32:00,
2013-10-30 02:37:00,39.1,35.8,30.22,ESE,107,0.0,0.0,88,0.00,,,0.06,Wunderground v.1.15,2013-10-30 06:37:00,
2013-10-30 02:47:00,39.1,35.8,30.22,ESE,107,0.0,0.0,88,0.00,,,0.06,Wunderground v.1.15,2013-10-30 06:47:00,
2013-10-30 02:52:00,39.1,35.8,30.22,ESE,107,0.0,0.0,88,0.00,,,0.06,Wunderground v.1.15,2013-10-30 06:52:00,
2013-10-30 03:02:00,39.1,35.8,30.22,ESE,107,0.0,0.0,88,0.00,,,0.06,Wunderground v.1.15,2013-10-30 07:02:00,
2013-10-30 03:12:00,38.9,35.9,30.22,ESE,107,0.0,0.0,89,0.00,,,0.06,Wunderground v.1.15,2013-10-30 07:12:00,
2013-10-30 03:22:00,38.9,35.9,30.22,ESE,107,0.0,0.0,89,0.00,,,0.06,Wunderground v.1.15,2013-10-30 07:22:00,
2013-10-30 03:32:00,38.9,35.9,30.22,ESE,107,0.0,0.0,89,0.00,,,0.06,Wunderground v.1.15,2013-10-30 07:32:00,
2013-10-30 03:37:00,38.9,35.9,30.22,ESE,107,0.0,0.0,89,0.00,,,0.06,Wunderground v.1.15,2013-10-30 07:37:00,
2013-10-30 03:47:00,39.1,36.1,30.22,ESE,107,0.0,0.0,89,0.00,,,0.06,Wunderground v.1.15,2013-10-30 07:47:00,
2013-10-30 03:52:00,39.2,36.2,30.22,ESE,107,0.0,0.0,89,0.00,,,0.06,Wunderground v.1.15,2013-10-30 07:52:00,
2013-10-30 04:02:00,39.2,36.2,30.22,ESE,107,0.0,0.0,89,0.00,,,0.06,Wunderground v.1.15,2013-10-30 08:02:00,
2013-10-30 04:08:00,39.1,36.1,30.22,ESE,107,0.0,0.0,89,0.00,,,0.06,Wunderground v.1.15,2013-10-30 08:08:00,
2013-10-30 04:17:00,39.2,36.2,30.22,ESE,107,0.0,0.0,89,0.00,,,0.06,Wunderground v.1.15,2013-10-30 08:17:00,
2013-10-30 04:22:00,39.2,36.2,30.22,ESE,107,0.0,0.0,89,0.00,,,0.06,Wunderground v.1.15,2013-10-30 08:22:00,
2013-10-30 04:32:00,39.5,36.8,30.21,ESE,107,0.0,0.0,90,0.00,,,0.06,Wunderground v.1.15,2013-10-30 08:32:00,
2013-10-30 04:37:00,39.5,36.8,30.21,ESE,107,0.0,0.0,90,0.00,,,0.06,Wunderground v.1.15,2013-10-30 08:37:00,
2013-10-30 04:47:00,39.5,36.8,30.21,ESE,107,0.0,0.0,90,0.00,,,0.06,Wunderground v.1.15,2013-10-30 08:47:00,
2013-10-30 04:52:00,39.5,36.8,30.21,ESE,107,0.0,0.0,90,0.00,,,0.06,Wunderground v.1.15,2013-10-30 08:52:00,
2013-10-30 05:02:00,39.3,36.6,30.21,ESE,107,0.0,0.0,90,0.00,,,0.06,Wunderground v.1.15,2013-10-30 09:02:00,
2013-10-30 05:08:00,39.3,36.6,30.21,ESE,107,0.0,0.0,90,0.00,,,0.06,Wunderground v.1.15,2013-10-30 09:08:00,
2013-10-30 05:17:00,39.3,36.6,30.20,ESE,107,0.0,0.0,90,0.00,,,0.06,Wunderground v.1.15,2013-10-30 09:17:00,
2013-10-30 05:22:00,39.3,36.6,30.20,ESE,107,0.0,0.0,90,0.00,,,0.06,Wunderground v.1.15,2013-10-30 09:22:00,
2013-10-30 05:32:00,39.5,36.8,30.20,ESE,107,0.0,0.0,90,0.00,,,0.06,Wunderground v.1.15,2013-10-30 09:32:00,
2013-10-30 05:37:00,39.5,36.8,30.20,ESE,107,0.0,0.0,90,0.00,,,0.06,Wunderground v.1.15,2013-10-30 09:37:00,
2013-10-30 05:47:00,39.5,36.8,30.20,ESE,107,0.0,0.0,90,0.00,,,0.06,Wunderground v.1.15,2013-10-30 09:47:00,
2013-10-30 05:52:00,39.5,36.8,30.20,ESE,107,0.0,0.0,90,0.00,,,0.06,Wunderground v.1.15,2013-10-30 09:52:00,
2013-10-30 06:02:00,39.5,36.8,30.21,ESE,107,0.0,0.0,90,0.00,,,0.06,Wunderground v.1.15,2013-10-30 10:02:00,
2013-10-30 06:12:00,39.6,37.2,30.21,ESE,107,0.0,0.0,91,0.00,,,0.06,Wunderground v.1.15,2013-10-30 10:12:00,
2013-10-30 06:22:00,39.6,37.2,30.21,ESE,107,0.0,0.0,91,0.00,,,0.06,Wunderground v.1.15,2013-10-30 10:22:00,
2013-10-30 06:32:00,39.8,37.4,30.20,ESE,107,0.0,0.0,91,0.00,,,0.06,Wunderground v.1.15,2013-10-30 10:32:00,
2013-10-30 06:37:00,39.9,37.5,30.20,ESE,107,0.0,0.0,91,0.00,,,0.06,Wunderground v.1.15,2013-10-30 10:37:00,
2013-10-30 06:47:00,39.9,37.5,30.20,ESE,107,0.0,0.0,91,0.00,,,0.06,Wunderground v.1.15,2013-10-30 10:47:00,
2013-10-30 06:52:00,39.8,37.4,30.20,ESE,107,0.0,0.0,91,0.00,,,0.06,Wunderground v.1.15,2013-10-30 10:52:00,
2013-10-30 07:02:00,39.9,37.5,30.20,ESE,107,0.0,0.0,91,0.00,,,0.06,Wunderground v.1.15,2013-10-30 11:02:00,
2013-10-30 07:12:00,39.9,37.5,30.20,ESE,107,0.0,0.0,91,0.00,,,0.06,Wunderground v.1.15,2013-10-30 11:12:00,
2013-10-30 07:22:00,39.9,37.5,30.20,ESE,107,0.0,0.0,91,0.00,,,0.06,Wunderground v.1.15,2013-10-30 11:22:00,
2013-10-30 07:32:00,39.9,37.5,30.20,ESE,107,0.0,0.0,91,0.00,,,0.06,Wunderground v.1.15,2013-10-30 11:32:00,
2013-10-30 07:37:00,39.9,37.5,30.20,ESE,107,0.0,0.0,91,0.00,,,0.06,Wunderground v.1.15,2013-10-30 11:37:00,
2013-10-30 07:47:00,39.6,37.2,30.21,ESE,107,0.0,0.0,91,0.00,,,0.06,Wunderground v.1.15,2013-10-30 11:47:00,
2013-10-30 07:52:00,39.6,37.2,30.21,ESE,107,0.0,0.0,91,0.00,,,0.06,Wunderground v.1.15,2013-10-30 11:52:00,
2013-10-30 08:02:00,39.5,37.1,30.21,ESE,107,0.0,0.0,91,0.00,,,0.06,Wunderground v.1.15,2013-10-30 12:02:00,
2013-10-30 08:08:00,39.3,36.9,30.21,ESE,107,0.0,0.0,91,0.00,,,0.06,Wunderground v.1.15,2013-10-30 12:08:00,
2013-10-30 08:17:00,39.3,36.9,30.21,ESE,107,0.0,0.0,91,0.00,,,0.06,Wunderground v.1.15,2013-10-30 12:17:00,
2013-10-30 08:22:00,39.3,36.9,30.21,ESE,107,0.0,0.0,91,0.00,,,0.06,Wunderground v.1.15,2013-10-30 12:22:00,
2013-10-30 08:32:00,39.5,37.1,30.22,ESE,107,0.0,0.0,91,0.00,,,0.06,Wunderground v.1.15,2013-10-30 12:32:00,
2013-10-30 08:37:00,39.5,37.1,30.22,ESE,107,0.0,0.0,91,0.00,,,0.06,Wunderground v.1.15,2013-10-30 12:37:00,
2013-10-30 08:47:00,39.5,37.1,30.22,ESE,107,0.0,0.0,91,0.00,,,0.06,Wunderground v.1.15,2013-10-30 12:47:00,
2013-10-30 08:52:00,39.5,37.1,30.22,ESE,107,0.0,0.0,91,0.00,,,0.06,Wunderground v.1.15,2013-10-30 12:52:00,
2013-10-30 09:02:00,39.8,37.4,30.22,ESE,107,0.0,0.0,91,0.00,,,0.06,Wunderground v.1.15,2013-10-30 13:02:00,
2013-10-30 09:12:00,40.1,37.7,30.22,ESE,107,0.0,0.0,91,0.00,,,0.06,Wunderground v.1.15,2013-10-30 13:12:00,
2013-10-30 09:23:00,40.3,37.9,30.22,ESE,107,0.0,0.0,91,0.00,,,0.06,Wunderground v.1.15,2013-10-30 13:23:00,
2013-10-30 09:32:00,40.8,38.4,30.22,ESE,107,0.0,0.0,91,0.00,,,0.06,Wunderground v.1.15,2013-10-30 13:32:00,
2013-10-30 09:37:00,41.1,38.7,30.22,ESE,107,0.0,0.0,91,0.00,,,0.06,Wunderground v.1.15,2013-10-30 13:37:00,
2013-10-30 09:47:00,41.5,38.8,30.22,ESE,107,0.0,0.0,90,0.00,,,0.06,Wunderground v.1.15,2013-10-30 13:47:00,
2013-10-30 09:52:00,41.8,39.1,30.22,ESE,107,0.0,0.0,90,0.00,,,0.06,Wunderground v.1.15,2013-10-30 13:52:00,
2013-10-30 10:02:00,42.2,38.9,30.22,ESE,107,0.0,0.0,88,0.00,,,0.06,Wunderground v.1.15,2013-10-30 14:02:00,
2013-10-30 10:07:00,42.5,38.9,30.22,ESE,107,0.0,0.0,87,0.00,,,0.06,Wunderground v.1.15,2013-10-30 14:07:00,
2013-10-30 10:17:00,43.1,39.2,30.22,ESE,107,0.0,0.0,86,0.00,,,0.06,Wunderground v.1.15,2013-10-30 14:17:00,
2013-10-30 10:22:00,43.3,39.4,30.22,ESE,107,0.0,0.0,86,0.00,,,0.06,Wunderground v.1.15,2013-10-30 14:22:00,
2013-10-30 10:32:00,43.6,39.1,30.22,ESE,109,0.0,0.0,84,0.00,,,0.06,Wunderground v.1.15,2013-10-30 14:32:00,
2013-10-30 10:37:00,43.8,38.7,30.22,ESE,109,0.0,0.0,82,0.00,,,0.06,Wunderground v.1.15,2013-10-30 14:37:00,
2013-10-30 10:47:00,44.3,38.8,30.22,ESE,109,0.0,0.0,81,0.00,,,0.06,Wunderground v.1.15,2013-10-30 14:47:00,
2013-10-30 10:52:00,44.5,38.1,30.22,ESE,109,0.0,0.0,78,0.00,,,0.06,Wunderground v.1.15,2013-10-30 14:52:00,
2013-10-30 11:02:00,44.9,38.1,30.22,ESE,109,0.0,0.0,77,0.00,,,0.06,Wunderground v.1.15,2013-10-30 15:02:00,
2013-10-30 11:12:00,45.4,38.3,30.22,ESE,109,0.0,0.0,76,0.00,,,0.06,Wunderground v.1.15,2013-10-30 15:12:00,
2013-10-30 11:22:00,46.0,38.5,30.21,ESE,109,0.0,0.0,75,0.00,,,0.06,Wunderground v.1.15,2013-10-30 15:22:00,
2013-10-30 11:32:00,46.5,38.0,30.21,ESE,109,0.0,0.0,72,0.00,,,0.06,Wunderground v.1.15,2013-10-30 15:32:00,
2013-10-30 11:37:00,46.8,37.9,30.21,ESE,109,0.0,0.0,71,0.00,,,0.06,Wunderground v.1.15,2013-10-30 15:37:00,
2013-10-30 11:47:00,47.3,38.4,30.21,ESE,109,0.0,0.0,71,0.00,,,0.06,Wunderground v.1.15,2013-10-30 15:47:00,
2013-10-30 11:52:00,47.3,38.0,30.21,ESE,109,0.0,0.0,70,0.00,,,0.06,Wunderground v.1.15,2013-10-30 15:52:00,
2013-10-30 12:02:00,47.6,38.3,30.20,ESE,109,0.0,0.0,70,0.00,,,0.06,Wunderground v.1.15,2013-10-30 16:02:00,
2013-10-30 12:07:00,47.9,38.6,30.20,ESE,109,0.0,0.0,70,0.00,,,0.06,Wunderground v.1.15,2013-10-30 16:07:00,
2013-10-30 12:17:00,48.3,38.6,30.19,ESE,109,0.0,0.0,69,0.00,,,0.06,Wunderground v.1.15,2013-10-30 16:17:00,
2013-10-30 12:22:00,48.5,38.0,30.19,ESE,109,0.0,0.0,67,0.00,,,0.06,Wunderground v.1.15,2013-10-30 16:22:00,
2013-10-30 12:32:00,48.8,38.3,30.19,ESE,109,0.0,0.0,67,0.00,,,0.06,Wunderground v.1.15,2013-10-30 16:32:00,
2013-10-30 12:37:00,49.1,38.2,30.19,ESE,109,0.0,0.0,66,0.00,,,0.06,Wunderground v.1.15,2013-10-30 16:37:00,
2013-10-30 12:47:00,49.4,38.1,30.17,ESE,109,0.0,0.0,65,0.00,,,0.06,Wunderground v.1.15,2013-10-30 16:47:00,
2013-10-30 12:52:00,49.4,38.1,30.17,ESE,109,0.0,0.0,65,0.00,,,0.06,Wunderground v.1.15,2013-10-30 16:52:00,
2013-10-30 13:02:00,50.1,38.4,30.17,ESE,104,0.0,0.0,64,0.00,,,0.06,Wunderground v.1.15,2013-10-30 17:02:00,
2013-10-30 13:12:00,50.7,39.0,30.17,ESE,104,0.0,0.0,64,0.00,,,0.06,Wunderground v.1.15,2013-10-30 17:12:00,
2013-10-30 13:17:00,51.0,38.8,30.17,ESE,104,0.0,0.0,63,0.00,,,0.06,Wunderground v.1.15,2013-10-30 17:17:00,
2013-10-30 13:22:00,51.4,38.4,30.17,ESE,104,0.0,0.0,61,0.00,,,0.06,Wunderground v.1.15,2013-10-30 17:22:00,
2013-10-30 13:32:00,51.7,38.7,30.16,ESE,104,0.0,0.0,61,0.00,,,0.06,Wunderground v.1.15,2013-10-30 17:32:00,
2013-10-30 13:37:00,51.9,38.9,30.16,ESE,104,0.0,0.0,61,0.00,,,0.06,Wunderground v.1.15,2013-10-30 17:37:00,
2013-10-30 13:47:00,51.9,38.4,30.15,ESE,104,0.0,0.0,60,0.00,,,0.06,Wunderground v.1.15,2013-10-30 17:47:00,
2013-10-30 13:53:00,52.3,39.2,30.15,ESE,104,0.0,0.0,61,0.00,,,0.06,Wunderground v.1.15,2013-10-30 17:53:00,
2013-10-30 14:02:00,52.8,38.4,30.15,ESE,104,0.0,0.0,58,0.00,,,0.06,Wunderground v.1.15,2013-10-30 18:02:00,
2013-10-30 14:07:00,52.5,38.6,30.15,ESE,104,0.0,0.0,59,0.00,,,0.06,Wunderground v.1.15,2013-10-30 18:07:00,
2013-10-30 14:17:00,52.5,38.6,30.14,ESE,104,0.0,2.0,59,0.00,,,0.06,Wunderground v.1.15,2013-10-30 18:17:00,
2013-10-30 14:27:00,52.8,38.4,30.14,ESE,104,0.0,0.0,58,0.00,,,0.06,Wunderground v.1.15,2013-10-30 18:27:00,
2013-10-30 14:42:00,53.1,37.8,30.14,ESE,104,0.0,0.0,56,0.00,,,0.06,Wunderground v.1.15,2013-10-30 18:42:00,
2013-10-30 14:47:00,53.1,37.8,30.14,ESE,104,0.0,0.0,56,0.00,,,0.06,Wunderground v.1.15,2013-10-30 18:47:00,
2013-10-30 14:53:00,53.1,37.8,30.14,ESE,104,0.0,0.0,56,0.00,,,0.06,Wunderground v.1.15,2013-10-30 18:53:00,
2013-10-30 15:02:00,53.2,38.4,30.13,ESE,104,0.0,0.0,57,0.00,,,0.06,Wunderground v.1.15,2013-10-30 19:02:00,
2013-10-30 15:07:00,53.5,39.1,30.13,ESE,104,0.0,0.0,58,0.00,,,0.06,Wunderground v.1.15,2013-10-30 19:07:00,
2013-10-30 15:17:00,53.8,39.8,30.13,East,79,0.0,0.0,59,0.00,,,0.06,Wunderground v.1.15,2013-10-30 19:17:00,
2013-10-30 15:22:00,53.6,40.0,30.13,East,79,0.0,0.0,60,0.00,,,0.06,Wunderground v.1.15,2013-10-30 19:22:00,
2013-10-30 15:32:00,53.6,40.0,30.12,East,79,0.0,0.0,60,0.00,,,0.06,Wunderground v.1.15,2013-10-30 19:32:00,
2013-10-30 15:38:00,53.6,40.5,30.12,North,6,0.0,0.0,61,0.00,,,0.06,Wunderground v.1.15,2013-10-30 19:38:00,
2013-10-30 15:47:00,53.6,40.9,30.12,NNE,14,0.0,0.0,62,0.00,,,0.06,Wunderground v.1.15,2013-10-30 19:47:00,
2013-10-30 15:57:00,53.5,40.8,30.12,NNE,31,0.0,0.0,62,0.00,,,0.06,Wunderground v.1.15,2013-10-30 19:57:00,
2013-10-30 16:02:00,53.3,40.2,30.11,NE,37,0.0,0.0,61,0.00,,,0.06,Wunderground v.1.15,2013-10-30 20:02:00,
2013-10-30 16:07:00,53.2,40.1,30.11,NNE,32,0.0,0.0,61,0.00,,,0.06,Wunderground v.1.15,2013-10-30 20:07:00,
2013-10-30 16:17:00,53.1,40.0,30.11,NNE,32,0.0,0.0,61,0.00,,,0.06,Wunderground v.1.15,2013-10-30 20:17:00,
2013-10-30 16:27:00,52.8,40.5,30.11,NNE,32,0.0,0.0,63,0.00,,,0.06,Wunderground v.1.15,2013-10-30 20:27:00,
2013-10-30 16:32:00,52.6,41.2,30.10,ESE,121,0.0,0.0,65,0.00,,,0.06,Wunderground v.1.15,2013-10-30 20:32:00,
2013-10-30 16:38:00,52.3,41.3,30.10,NNE,30,0.0,2.0,66,0.00,,,0.06,Wunderground v.1.15,2013-10-30 20:38:00,
2013-10-30 16:47:00,52.0,41.4,30.10,NNE,18,0.0,2.0,67,0.00,,,0.06,Wunderground v.1.15,2013-10-30 20:47:00,
2013-10-30 16:53:00,51.7,41.1,30.10,NNE,17,0.0,3.0,67,0.00,,,0.06,Wunderground v.1.15,2013-10-30 20:53:00,
2013-10-30 17:02:00,51.4,41.2,30.11,NNE,31,0.0,0.0,68,0.00,,,0.06,Wunderground v.1.15,2013-10-30 21:02:00,
2013-10-30 17:07:00,51.3,41.5,30.11,NNE,31,0.0,0.0,69,0.00,,,0.06,Wunderground v.1.15,2013-10-30 21:07:00,
2013-10-30 17:12:00,51.1,41.7,30.11,NNE,31,0.0,0.0,70,0.00,,,0.06,Wunderground v.1.15,2013-10-30 21:12:00,
2013-10-30 17:27:00,50.4,41.7,30.11,NNE,30,0.0,0.0,72,0.00,,,0.06,Wunderground v.1.15,2013-10-30 21:27:00,
2013-10-30 17:37:00,49.8,41.8,30.11,NNE,30,0.0,0.0,74,0.00,,,0.06,Wunderground v.1.15,2013-10-30 21:37:00,
2013-10-30 17:47:00,49.5,41.9,30.12,NNE,30,0.0,0.0,75,0.00,,,0.06,Wunderground v.1.15,2013-10-30 21:47:00,
2013-10-30 17:57:00,49.2,41.6,30.12,NNE,30,0.0,0.0,75,0.00,,,0.06,Wunderground v.1.15,2013-10-30 21:57:00,
2013-10-30 18:07:00,49.1,41.9,30.11,NNE,30,0.0,0.0,76,0.00,,,0.06,Wunderground v.1.15,2013-10-30 22:07:00,
2013-10-30 18:12:00,48.9,41.7,30.11,NNE,30,0.0,0.0,76,0.00,,,0.06,Wunderground v.1.15,2013-10-30 22:12:00,
2013-10-30 18:22:00,48.5,42.0,30.12,NNE,30,0.0,0.0,78,0.00,,,0.06,Wunderground v.1.15,2013-10-30 22:22:00,
2013-10-30 18:32:00,48.2,41.7,30.12,NNE,30,0.0,0.0,78,0.00,,,0.06,Wunderground v.1.15,2013-10-30 22:32:00,
2013-10-30 18:37:00,48.0,41.5,30.12,NNE,30,0.0,0.0,78,0.00,,,0.06,Wunderground v.1.15,2013-10-30 22:37:00,
2013-10-30 18:47:00,47.4,41.2,30.13,NNE,30,0.0,0.0,79,0.00,,,0.06,Wunderground v.1.15,2013-10-30 22:47:00,
2013-10-30 18:57:00,47.0,41.1,30.13,NNE,30,0.0,0.0,80,0.00,,,0.06,Wunderground v.1.15,2013-10-30 22:57:00,
2013-10-30 19:07:00,47.0,41.1,30.12,NNE,30,0.0,0.0,80,0.00,,,0.06,Wunderground v.1.15,2013-10-30 23:07:00,
2013-10-30 19:12:00,47.0,41.1,30.12,NNE,30,0.0,0.0,80,0.00,,,0.06,Wunderground v.1.15,2013-10-30 23:12:00,
2013-10-30 19:17:00,46.8,41.0,30.12,NNE,30,0.0,0.0,80,0.00,,,0.06,Wunderground v.1.15,2013-10-30 23:17:00,
2013-10-30 19:23:00,46.7,41.2,30.12,NNE,30,0.0,0.0,81,0.00,,,0.06,Wunderground v.1.15,2013-10-30 23:23:00,
2013-10-30 19:32:00,46.5,41.0,30.12,NNE,30,0.0,0.0,81,0.00,,,0.06,Wunderground v.1.15,2013-10-30 23:32:00,
2013-10-30 19:37:00,46.2,40.7,30.12,NNE,30,0.0,0.0,81,0.00,,,0.06,Wunderground v.1.15,2013-10-30 23:37:00,
2013-10-30 19:47:00,46.0,40.5,30.12,NNE,30,0.0,0.0,81,0.00,,,0.06,Wunderground v.1.15,2013-10-30 23:47:00,
2013-10-30 19:53:00,45.8,40.6,30.12,NNE,30,0.0,0.0,82,0.00,,,0.06,Wunderground v.1.15,2013-10-30 23:53:00,
2013-10-30 20:02:00,45.5,40.3,30.12,NNE,30,0.0,0.0,82,0.00,,,0.06,Wunderground v.1.15,2013-10-31 00:02:00,
2013-10-30 20:12:00,45.1,39.9,30.12,NNE,30,0.0,0.0,82,0.00,,,0.06,Wunderground v.1.15,2013-10-31 00:12:00,
2013-10-30 20:17:00,45.1,40.2,30.12,NNE,30,0.0,0.0,83,0.00,,,0.06,Wunderground v.1.15,2013-10-31 00:17:00,
2013-10-30 20:27:00,44.9,40.0,30.12,NNE,30,0.0,0.0,83,0.00,,,0.06,Wunderground v.1.15,2013-10-31 00:27:00,
2013-10-30 20:37:00,44.2,39.7,30.11,NNE,30,0.0,0.0,84,0.00,,,0.06,Wunderground v.1.15,2013-10-31 00:37:00,
2013-10-30 20:47:00,44.1,39.9,30.11,NNE,30,0.0,0.0,85,0.00,,,0.06,Wunderground v.1.15,2013-10-31 00:47:00,
2013-10-30 20:52:00,44.1,39.9,30.11,NNE,30,0.0,0.0,85,0.00,,,0.06,Wunderground v.1.15,2013-10-31 00:52:00,
2013-10-30 21:02:00,44.2,40.0,30.11,NNE,30,0.0,0.0,85,0.00,,,0.06,Wunderground v.1.15,2013-10-31 01:02:00,
2013-10-30 21:12:00,44.6,40.4,30.11,NNE,30,0.0,0.0,85,0.00,,,0.06,Wunderground v.1.15,2013-10-31 01:12:00,
2013-10-30 21:23:00,44.8,40.0,30.11,NNE,30,0.0,0.0,83,0.00,,,0.06,Wunderground v.1.15,2013-10-31 01:23:00,
2013-10-30 21:32:00,44.6,39.8,30.11,NNE,30,0.0,0.0,83,0.00,,,0.06,Wunderground v.1.15,2013-10-31 01:32:00,
2013-10-30 21:37:00,44.5,39.7,30.11,NNE,30,0.0,0.0,83,0.00,,,0.06,Wunderground v.1.15,2013-10-31 01:37:00,
2013-10-30 21:47:00,44.6,39.4,30.10,NNE,30,0.0,0.0,82,0.00,,,0.06,Wunderground v.1.15,2013-10-31 01:47:00,
2013-10-30 21:52:00,44.6,39.4,30.10,NNE,30,0.0,0.0,82,0.00,,,0.06,Wunderground v.1.15,2013-10-31 01:52:00,
2013-10-30 22:02:00,44.8,39.6,30.10,NNE,30,0.0,0.0,82,0.00,,,0.06,Wunderground v.1.15,2013-10-31 02:02:00,
2013-10-30 22:07:00,44.9,39.4,30.10,NNE,30,0.0,0.0,81,0.00,,,0.06,Wunderground v.1.15,2013-10-31 02:07:00,
2013-10-30 22:17:00,44.9,39.4,30.10,NNE,30,0.0,0.0,81,0.00,,,0.06,Wunderground v.1.15,2013-10-31 02:17:00,
2013-10-30 22:22:00,44.9,39.4,30.10,NNE,30,0.0,0.0,81,0.00,,,0.06,Wunderground v.1.15,2013-10-31 02:22:00,
2013-10-30 22:32:00,44.9,39.4,30.11,NNE,32,0.0,0.0,81,0.00,,,0.06,Wunderground v.1.15,2013-10-31 02:32:00,
2013-10-30 22:38:00,44.9,39.4,30.11,NNE,32,0.0,0.0,81,0.00,,,0.06,Wunderground v.1.15,2013-10-31 02:38:00,
2013-10-30 22:47:00,45.2,39.4,30.10,NNE,32,0.0,0.0,80,0.00,,,0.06,Wunderground v.1.15,2013-10-31 02:47:00,
2013-10-30 22:52:00,45.7,39.2,30.10,NNE,32,0.0,0.0,78,0.00,,,0.06,Wunderground v.1.15,2013-10-31 02:52:00,
2013-10-30 23:02:00,46.0,39.2,30.09,ENE,72,0.0,0.0,77,0.00,,,0.06,Wunderground v.1.15,2013-10-31 03:02:00,
2013-10-30 23:07:00,46.0,38.9,30.09,ESE,119,0.0,0.0,76,0.00,,,0.06,Wunderground v.1.15,2013-10-31 03:07:00,
2013-10-30 23:12:00,46.1,39.0,30.09,ESE,119,0.0,0.0,76,0.00,,,0.06,Wunderground v.1.15,2013-10-31 03:12:00,
2013-10-30 23:22:00,46.0,38.9,30.08,ESE,119,0.0,0.0,76,0.00,,,0.06,Wunderground v.1.15,2013-10-31 03:22:00,
2013-10-30 23:32:00,46.0,38.5,30.07,ESE,119,0.0,0.0,75,0.00,,,0.06,Wunderground v.1.15,2013-10-31 03:32:00,
2013-10-30 23:37:00,46.1,38.6,30.07,ESE,119,0.0,0.0,75,0.00,,,0.06,Wunderground v.1.15,2013-10-31 03:37:00,
2013-10-30 23:47:00,46.1,38.6,30.06,SE,143,0.0,1.0,75,0.00,,,0.06,Wunderground v.1.15,2013-10-31 03:47:00,
2013-10-30 23:52:00,46.1,38.6,30.06,SE,144,0.0,0.0,75,0.00,,,0.06,Wunderground v.1.15,2013-10-31 03:52:00,